Flag for Germany Weather past 2 weeks in Bruchsal, Baden-Württemberg, Germany

Now
52 °F

Mostly cloudy.


Feels Like: 49 °F
Forecast: 42 / 46 °F
Wind: 9 mph from Southwest

Location: Baden Wurttemberg - Neuostheim

Current Time: Dec 19, 2014 at 8:36:53 AM

Latest Report: Dec 19, 2014 at 7:50 AM


Visibility: N/A

Pressure: 30.07 "Hg

Humidity: 82%

Dew point: 46 °F

Location of BruchsalLocation

Historic Weather in Bruchsal — Graph

°F

Bruchsal temperature yesterday

Maximum temperature yesterday: 55 °F (at 6:20 PM)
Minimum temperature yesterday: 48 °F (at 5:20 AM)
Average temperature yesterday: 51 °F

Past Weeks' High & Low Weather Summary

 TemperatureHumidityPressure
High55 °F (Dec 18, 6:20 PM)100% (Dec 6, 7:50 AM)30.45 "Hg (Dec 6, 7:50 AM)
Low34 °F (Dec 8, 8:50 PM)57% (Dec 8, 1:50 PM)29.68 "Hg (Dec 12, 4:20 PM)
Average43 °F86%30.04 "Hg
* Reported Dec 4 7:20 AM — Dec 19 7:20 AM, Bruchsal, Weather by CustomWeather, © 2014

Note: Actual official high and low records may vary slightly from our data, if they occured in-between our weather recording intervals... More about our weather records

Advertising

Bruchsal weather history for previous 24 hours

 ConditionsComfort  
Time TempWeatherWind HumidityBarometerVisibility
7:20 AM
Dec 19
52 °FOvercast.12 mph82%30.07 "HgN/A
6:50 AM54 °FOvercast.12 mph77%30.07 "HgN/A
6:20 AM52 °FOvercast.13 mph82%30.07 "HgN/A
5:50 AM52 °FOvercast.13 mph88%30.07 "HgN/A
5:20 AM52 °FOvercast.9 mph82%30.07 "HgN/A
1:50 AM54 °FOvercast.12 mph77%30.09 "HgN/A
1:20 AM54 °FOvercast.13 mph77%30.09 "HgN/A
12:50 AM54 °FOvercast.13 mph72%30.12 "HgN/A
12:20 AM55 °FOvercast.15 mph67%30.09 "HgN/A
11:50 PM
Dec 18
55 °FMostly cloudy.14 mph67%30.09 "HgN/A
11:20 PM55 °FOvercast.12 mph72%30.09 "HgN/A
10:50 PM55 °FOvercast.15 mph72%30.09 "HgN/A
8:50 PM55 °FOvercast.8 mph94%30.04 "HgN/A
8:20 PM54 °FMostly cloudy.8 mph100%30.04 "HgN/A
7:50 PM54 °FLow clouds.9 mph94%30.04 "HgN/A
7:20 PM55 °FOvercast.8 mph88%30.04 "HgN/A
6:50 PM55 °FOvercast.6 mph88%30.04 "HgN/A
6:20 PM55 °FMostly cloudy.10 mph88%30.01 "HgN/A
5:50 PM54 °FOvercast.7 mph94%30.01 "HgN/A
5:20 PM54 °FOvercast.7 mph94%30.01 "HgN/A
4:50 PM54 °FOvercast.7 mph94%29.98 "HgN/A
4:20 PM54 °FPartly sunny.6 mph94%29.98 "HgN/A
3:50 PM54 °FOvercast.7 mph94%29.98 "HgN/A
3:20 PM52 °FLow clouds.7 mph100%29.98 "HgN/A
2:50 PM52 °FLow clouds.9 mph94%29.98 "HgN/A
2:20 PM52 °FMore clouds than sun.8 mph94%29.98 "HgN/A
1:50 PM50 °FLight rain. Mostly cloudy.8 mph100%29.98 "HgN/A
1:20 PM50 °FLight rain. Partly sunny.8 mph100%29.98 "Hg6 mi
12:50 PM50 °FLight rain. More clouds than sun.8 mph94%29.98 "HgN/A
12:20 PM50 °FMore clouds than sun.10 mph94%29.98 "HgN/A
11:50 AM50 °FCloudy.10 mph94%29.98 "HgN/A
11:20 AM50 °FPartly sunny.10 mph94%29.98 "HgN/A
10:50 AM50 °FBroken clouds.10 mph88%29.98 "HgN/A
10:20 AM50 °FBroken clouds.12 mph88%29.98 "HgN/A
9:50 AM48 °FMostly cloudy.14 mph94%29.95 "HgN/A
9:20 AM48 °FCloudy.12 mph94%29.98 "HgN/A
8:50 AM48 °FBroken clouds.10 mph94%29.98 "HgN/A
8:20 AM48 °FMore clouds than sun.10 mph94%29.95 "HgN/A
Weather by CustomWeather, © 2014

See weather overviewHow to use our weather pages